CAPE
4 4 2 0 0 1 6 6 20 19 7 2 8 23 16 16 27 38 0 0 0 0 0 0 0 0 0 0 0 0 0 0 0 0 0 0 0 0 0 0 0 0 0 0 0 0 0 0 0 0 0 0 0 0
14 9 9 5 1 9 8 2 1 7 25 23 12 5 10 35 60 53 27 0 0 0 0 0 0 0 0 0 0 0 0 0 0 0 0 0 0 0 0 0 0 0 0 0 0 0 0 0 0 0 0 0 0 0
11 19 22 18 11 7 6 3 3 5 5 26 28 13 7 1 20 39 34 0 0 1 0 0 0 0 0 0 0 0 0 0 0 0 0 0 0 0 0 0 0 0 0 0 0 0 0 0 0 0 0 0 0 0
19 18 15 12 18 19 16 8 4 5 6 15 25 36 29 12 17 39 24 2 12 20 0 2 0 0 0 0 0 0 0 0 0 0 0 0 0 0 0 0 0 0 0 0 0 0 0 0 0 0 0 0 0 0
27 23 16 13 19 28 27 25 18 5 5 6 10 29 39 40 36 19 0 0 1 6 1 0 0 0 0 0 0 0 0 0 0 0 0 0 0 0 0 0 0 0 0 0 0 0 0 0 0 0 0 0 0 0
22 26 26 24 21 28 38 44 38 24 16 7 8 14 39 49 51 2 0 3 0 13 9 1 0 0 0 0 0 0 0 0 0 0 0 0 0 0 0 0 0 0 0 0 0 0 0 0 0 0 0 0 0 0
43 45 39 37 39 40 43 52 71 59 48 29 8 26 43 51 15 3 0 26 2 0 20 6 1 0 0 0 0 0 0 0 0 0 0 0 0 0 0 0 0 0 0 0 0 0 0 0 0 0 0 0 0 0
46 44 44 43 46 44 46 44 53 72 70 56 44 27 49 49 39 17 0 1 20 13 17 0 0 0 0 0 0 0 0 1 0 0 0 0 0 0 0 0 0 0 0 0 0 0 0 0 0 0 0 0 0 0
39 44 46 53 51 44 37 40 44 68 64 67 53 35 0 1 0 0 0 23 0 4 15 14 0 0 0 0 1 2 3 1 0 0 1 1 0 0 0 0 0 0 0 0 0 0 0 0 0 0 0 0 0 0
62 59 56 57 64 70 63 59 61 68 81 83 6 4 0 0 2 17 3 31 51 18 0 1 0 4 0 0 0 0 5 0 0 0 0 1 0 0 0 0 0 0 0 0 0 0 0 0 0 0 0 0 0 0
71 75 77 75 73 76 85 92 92 88 59 21 3 0 0 0 1 2 14 0 1 6 1 0 0 0 0 0 0 0 0 0 0 0 0 0 0 0 0 0 0 0 0 0 0 0 0 0 0 0 0 0 0 0
84 88 89 87 85 87 85 94 102 38 23 14 14 0 0 0 0 0 1 0 5 16 0 0 0 0 0 0 0 0 0 0 0 0 1 0 0 0 0 0 0 0 0 0 0 0 0 0 0 0 0 0 0 0
86 87 89 91 90 93 91 96 113 96 77 50 15 3 0 0 4 1 1 10 0 2 0 0 16 2 1 2 1 1 0 0 0 0 0 0 0 0 0 0 0 0 0 0 0 0 0 0 0 0 0 0 0 0
97 98 102 107 106 102 99 99 122 97 49 1 1 0 0 0 0 0 0 0 0 0 0 0 21 37 20 41 5 9 0 1 0 0 0 0 0 0 0 0 0 0 0 0 0 0 0 0 0 0 0 0 0 0
108 105 105 95 116 122 120 122 137 62 0 0 1 0 0 0 0 0 0 0 0 0 0 0 0 0 0 20 11 24 16 12 0 0 0 0 0 0 0 0 0 0 0 0 0 0 0 0 0 0 0 0 0 0
125 114 16 96 124 148 155 129 80 52 0 0 2 0 0 0 0 0 0 0 0 0 0 2 2 0 0 5 0 1 13 0 0 0 0 0 0 0 0 0 0 0 0 0 0 0 0 0 0 0 0 0 0 0
142 18 27 85 113 139 173 76 3 3 41 0 0 0 0 0 0 0 0 0 0 0 0 1 32 10 0 0 0 0 2 0 0 0 0 0 0 0 0 0 0 0 0 0 0 0 0 0 0 0 0 0 0 0
24 0 95 125 105 68 42 1 0 0 2 0 0 0 0 0 0 0 0 0 0 0 0 0 0 10 0 4 0 0 0 0 0 0 0 0 0 0 0 0 0 0 0 0 0 0 0 0 0 0 0 0 0 0
3 0 58 145 106 11 8 0 1 5 0 0 0 0 0 0 0 0 0 0 0 0 0 0 8 0 0 0 0 0 0 0 0 0 0 0 0 0 0 0 0 0 0 0 0 0 0 0 0 0 0 0 0 0
239 241 174 163 167 10 15 0 0 0 0 0 0 0 0 0 0 0 0 0 0 0 1 0 0 0 0 0 0 0 0 0 0 0 0 0 0 0 0 0 0 0 0 0 0 0 0 0 0 0 0 0 0 0
124 15 113 146 18 0 0 0 1 0 0 0 0 0 0 0 0 0 0 0 0 0 0 0 0 0 0 0 0 0 0 0 0 0 0 0 0 0 0 0 0 0 0 0 0 0 0 0 0 0 0 0 0 0
1 87 1 25 16 3 13 0 0 0 0 0 0 0 0 0 0 0 0 0 0 0 0 0 0 0 0 0 0 0 0 0 0 0 0 0 0 0 0 0 0 0 0 0 0 0 0 0 0 0 0 0 0 0
24 8 0 7 37 33 9 0 0 0 0 0 0 0 0 0 0 0 0 0 0 0 0 0 0 0 0 0 0 0 0 0 0 0 0 0 0 0 0 0 0 0 0 0 0 0 0 0 0 0 0 0 0 0
11 0 9 56 11 7 0 0 0 0 0 0 0 0 0 0 0 0 0 0 0 0 0 0 0 0 0 0 0 0 0 0 0 0 0 0 0 0 0 0 0 0 0 0 0 0 0 0 0 0 0 0 0 0
0 0 24 0 0 0 0 0 0 0 0 0 0 0 0 0 0 0 0 0 0 0 0 0 0 0 0 0 0 0 0 0 0 0 0 2 10 7 2 1 0 0 0 0 0 0 0 0 0 0 0 0 0 0
5 0 0 0 0 0 0 0 0 0 0 0 0 0 0 0 0 0 0 0 0 0 0 0 0 0 0 0 0 0 0 0 0 3 0 0 0 0 3 5 0 0 0 0 0 0 0 0 0 0 0 0 1 0
2 0 0 0 0 0 0 0 0 0 0 0 0 0 0 0 0 0 0 0 0 0 0 0 0 0 0 0 0 0 0 0 0 0 0 0 1 8 11 1 1 0 0 0 0 0 0 0 0 0 0 0 0 0
0 0 0 0 0 0 0 0 0 0 0 0 0 0 0 0 0 0 0 0 0 0 0 0 0 0 0 0 0 0 0 0 0 0 0 0 0 0 0 0 2 5 0 0 0 0 0 0 0 0 0 0 0 0
0 0 0 0 0 0 0 0 0 0 0 0 0 0 0 0 0 0 0 0 0 0 0 0 0 0 0 0 0 0 0 0 0 0 0 0 0 0 0 0 0 0 0 0 0 0 0 0 0 0 0 0 0 0
0 0 0 0 0 0 0 0 0 0 0 0 0 0 0 0 0 0 0 0 0 0 0 0 0 0 0 0 0 0 0 0 0 0 0 0 0 0 0 0 0 0 0 0 0 0 5 1 2 0 0 0 0 0
0 0 0 0 0 0 0 0 0 0 0 0 0 0 0 0 0 0 0 0 0 0 0 0 0 0 0 0 0 0 0 0 0 0 0 0 0 0 0 0 0 0 0 0 0 0 0 0 0 0 0 0 0 0
0 0 0 0 0 0 0 0 0 0 0 0 0 0 0 0 0 0 0 0 0 0 0 0 0 0 0 0 0 0 0 0 0 0 0 0 0 0 0 0 0 0 0 0 0 0 0 0 0 0 0 0 0 0
0 0 0 0 0 0 0 0 0 0 0 0 0 0 0 0 0 0 0 0 0 0 0 0 0 0 0 0 0 0 0 0 0 1 6 7 6 1 0 0 0 0 0 0 0 0 0 0 0 0 0 0 0 0
CIN
0 0 0 0 0 0 0 0 0 0 0 0 -4 -10 0 -21 0 0 0 0 0 0 0 0 0 0 0 0 0 0 0 0 0 0 0 0 0 0 0 0 0 0 0 0 0 0 0 0 0 0 0 0 0 0
0 0 0 0 0 0 0 0 0 0 0 0 0 0 0 -2 0 -4 0 0 0 0 0 0 0 0 0 0 0 0 0 0 0 0 0 0 0 0 0 0 0 0 0 0 0 0 0 0 0 0 0 0 0 0
0 0 0 0 0 0 0 0 0 0 0 0 0 0 0 0 0 0 -1 0 0 0 0 0 0 0 0 0 0 0 0 0 0 0 0 0 0 0 0 0 0 0 0 0 0 0 0 0 0 0 0 0 0 0
0 0 0 0 0 0 0 0 0 0 0 0 0 0 0 0 0 0 -2 -2 -7 -1 0 -2 0 0 0 0 0 0 0 0 0 0 0 0 0 0 0 0 0 0 0 0 0 0 0 0 0 0 0 0 0 0
0 0 0 0 0 0 0 0 0 0 0 0 0 0 0 0 0 -4 -1 0 -7 0 0 0 0 0 0 0 0 0 0 0 0 0 0 0 0 0 0 0 0 0 0 0 0 0 0 0 0 0 0 0 0 0
0 0 0 0 0 0 0 0 0 0 0 0 0 0 0 0 0 -5 0 -39 0 -1 0 -5 0 0 0 0 0 0 0 0 0 0 0 0 0 0 0 0 0 0 0 0 0 0 0 0 0 0 0 0 0 0
0 0 0 0 0 0 0 0 0 0 0 0 0 0 0 0 -7 -3 0 -2 -6 -1 -2 0 0 0 0 0 0 0 0 0 0 0 0 0 0 0 0 0 0 0 0 0 0 0 0 0 0 0 0 0 0 0
0 0 0 0 0 0 0 0 0 0 0 0 0 0 0 0 -2 -1 0 -6 -43 -2 -17 0 0 0 0 0 0 0 0 0 0 0 0 0 0 0 0 0 0 0 0 0 0 0 0 0 0 0 0 0 0 0
0 0 0 0 0 0 0 0 0 0 -1 -1 0 0 0 -1 0 0 0 -14 0 -16 -4 -6 0 0 0 0 0 0 0 0 0 0 0 0 0 0 0 0 0 0 0 0 0 0 0 0 0 0 0 0 0 0
0 0 0 0 0 0 0 0 0 0 0 -1 -10 -14 0 0 -37 -60 -5 -1 -1 -7 0 -8 0 -11 0 0 0 0 0 0 0 0 0 0 0 0 0 0 0 0 0 0 0 0 0 0 0 0 0 0 0 0
0 0 0 0 0 0 0 0 0 0 -1 -2 -3 0 0 0 -20 -36 -21 -6 -3 -10 0 0 0 0 0 0 0 0 0 0 0 0 0 0 0 0 0 0 0 0 0 0 0 0 0 0 0 0 0 0 0 0
0 0 0 0 0 0 0 0 0 -4 -7 -9 -1 -2 -13 0 0 -7 -2 0 -2 -12 0 0 0 0 0 0 0 0 0 0 0 0 0 0 0 0 0 0 0 0 0 0 0 0 0 0 0 0 0 0 0 0
0 0 0 0 0 0 0 0 0 -1 -6 -4 -7 0 0 0 0 -7 -1 -2 0 -68 0 0 -37 -51 0 0 0 0 0 0 0 0 0 0 0 0 0 0 0 0 0 0 0 0 0 0 0 0 0 0 0 0
0 0 0 0 0 0 0 0 0 -4 -1 -12 0 0 0 0 0 0 0 0 0 0 0 0 -45 -23 -37 -4 -16 -25 0 0 0 0 0 0 0 0 0 0 0 0 0 0 0 0 0 0 0 0 0 0 0 0
0 0 0 0 0 0 0 0 0 -11 0 0 0 0 0 0 0 0 0 0 0 0 0 0 -5 -55 -11 -25 -48 -41 -21 -22 0 0 0 0 0 0 0 0 0 0 0 0 0 0 0 0 0 0 0 0 0 0
0 -1 -4 0 0 0 0 -2 -3 -12 0 0 0 0 0 0 0 0 0 0 0 0 0 -15 -34 0 0 -10 0 -58 -32 0 0 0 0 0 0 0 0 0 0 0 0 0 0 0 0 0 0 0 0 0 0 0
0 -6 -11 -1 -1 -1 -2 -3 -4 -6 0 0 0 0 0 0 0 0 0 0 0 0 -5 -16 -8 -17 0 0 0 0 -26 0 0 -2 0 0 0 0 0 0 0 0 0 0 0 0 0 0 0 0 0 0 0 0
-4 0 -5 -2 -9 -16 -3 0 0 0 -9 0 0 0 0 0 0 0 0 0 0 0 0 0 -4 -15 -5 -3 0 0 0 0 0 0 0 0 0 0 0 0 0 0 0 0 0 0 0 0 0 0 0 0 0 0
-8 0 -12 -2 -9 -25 -10 0 -2 -5 0 0 0 0 0 0 0 0 0 0 0 0 0 0 -3 0 0 0 0 0 0 0 0 0 0 0 0 0 0 0 0 0 0 0 0 0 0 0 0 0 0 0 0 0
0 0 0 0 -2 -5 -5 -4 0 0 0 0 0 0 0 0 0 0 0 0 0 0 -2 -1 0 0 0 0 0 0 0 0 0 0 0 0 0 0 0 0 0 0 0 0 0 0 0 0 0 0 0 0 0 0
-1 -8 -2 -3 -5 0 -17 0 0 0 0 0 0 0 0 0 0 0 0 0 0 0 0 0 0 0 0 0 0 0 0 0 0 0 0 0 0 0 0 0 0 0 0 0 0 0 0 0 0 0 0 0 0 0
-3 -2 -25 -18 -2 -5 -2 0 0 0 0 0 0 0 0 0 0 0 0 0 0 0 0 0 0 0 0 0 0 0 0 0 0 0 0 0 0 0 0 0 0 0 0 0 0 0 0 0 0 0 0 0 0 0
-1 -7 0 -3 -1 0 -5 0 0 0 0 0 0 0 0 0 0 0 0 0 0 0 0 0 0 0 0 0 0 0 0 0 0 0 0 0 0 0 0 0 0 0 0 0 0 0 0 0 0 0 0 0 0 0
-11 0 -8 -1 -5 -4 0 0 0 0 0 0 0 0 0 0 0 0 0 0 0 0 0 0 0 0 0 0 0 0 0 0 0 0 0 0 0 0 0 0 0 0 0 0 0 0 0 0 0 0 0 0 0 0
-2 0 -6 0 0 0 0 0 0 0 0 0 0 0 0 0 0 0 0 0 0 0 0 0 0 0 0 0 0 0 0 0 0 0 0 -6 0 -1 0 -3 0 0 0 0 0 0 0 0 0 0 0 0 0 0
-24 0 0 0 0 0 0 0 0 0 0 0 0 0 0 0 0 0 0 0 0 0 0 0 0 0 0 0 0 0 0 0 0 -12 0 0 0 0 0 0 0 0 0 0 0 0 0 0 0 0 0 0 0 0
-18 0 0 0 0 0 0 0 0 0 0 0 0 0 0 0 0 0 0 0 0 0 0 0 0 0 0 0 0 0 0 0 0 0 0 0 -1 0 0 0 0 -1 -1 0 0 0 0 0 0 0 0 0 0 0
0 0 0 0 0 0 0 0 0 0 0 0 0 0 0 0 0 0 0 0 0 0 0 0 0 0 0 0 0 0 0 0 0 0 0 0 0 0 0 0 0 0 0 0 0 0 0 0 0 0 0 0 0 0
0 0 0 0 0 0 0 0 0 0 0 0 0 0 0 0 0 0 0 0 0 0 0 0 0 0 0 0 0 0 0 0 0 0 0 0 0 0 0 0 0 0 0 0 0 0 0 0 0 0 0 0 0 0
0 0 0 0 0 0 0 0 0 0 0 0 0 0 0 0 0 0 0 0 0 0 0 0 0 0 0 0 0 0 0 0 0 0 0 0 0 0 0 0 0 0 0 0 0 0 0 0 0 0 0 0 0 0
0 0 0 0 0 0 0 0 0 0 0 0 0 0 0 0 0 0 0 0 0 0 0 0 0 0 0 0 0 0 0 0 0 0 0 0 0 0 0 0 0 0 0 0 0 0 0 0 0 0 0 0 0 0
0 0 0 0 0 0 0 0 0 0 0 0 0 0 0 0 0 0 0 0 0 0 0 0 0 0 0 0 0 0 0 0 0 0 0 0 0 0 0 0 0 0 0 0 0 0 0 0 0 0 0 0 0 0
0 0 0 0 0 0 0 0 0 0 0 0 0 0 0 0 0 0 0 0 0 0 0 0 0 0 0 0 0 0 0 0 0 0 0 0 0 0 0 0 0 0 0 0 0 0 0 0 0 0 0 0 0 0
Wind_Speed
12 12 11 12 13 13 13 13 13 10 10 10 10 9 10 10 11 5 2 6 4 5 7 9 7 9 9 3 7 3 1 1 3 5 5 5 5 6 4 6 9 12 11 7 5 5 12 8 4 7 8 2 3 4
13 12 12 13 13 13 13 13 13 13 11 11 10 10 10 12 12 7 4 3 6 7 6 2 8 13 12 14 8 5 6 4 5 3 3 1 4 1 5 5 3 4 9 9 15 13 4 8 8 8 4 5 6 5
14 14 14 13 13 14 13 13 14 14 14 13 12 12 12 12 12 7 3 0 2 4 9 10 10 18 15 16 14 7 4 6 5 2 3 4 8 2 5 9 6 6 7 4 4 8 20 20 17 12 15 13 14 13
15 15 15 14 15 15 15 14 14 14 14 15 15 15 12 12 13 9 2 2 3 4 8 7 1 6 7 13 15 13 18 3 1 2 6 4 4 7 5 7 8 5 6 6 17 19 19 21 15 17 20 15 8 10
16 16 16 15 16 16 16 15 14 14 14 15 15 15 15 14 13 6 4 7 9 7 7 9 4 7 10 11 15 17 15 13 5 4 5 5 3 2 5 2 5 5 17 14 21 20 18 26 19 16 19 14 13 11
17 17 17 17 16 16 17 17 16 14 14 14 15 15 15 14 12 2 4 1 7 5 7 7 4 4 2 11 10 12 12 9 4 5 4 4 6 5 5 5 5 15 19 19 29 25 28 29 24 20 21 21 17 18
19 18 17 17 17 17 17 17 17 16 15 14 15 15 15 15 3 4 6 2 4 3 1 9 7 1 2 2 1 1 3 3 3 3 5 3 5 8 3 7 18 23 19 23 25 23 28 22 19 10 10 15 16 14
20 19 18 18 18 17 17 17 17 17 16 15 15 15 16 16 13 8 8 20 13 2 3 6 8 2 0 1 3 2 2 3 3 3 2 3 1 3 6 16 19 26 29 26 23 22 27 25 26 26 24 21 21 20
20 20 19 19 19 18 17 17 17 16 18 15 14 16 7 4 4 5 7 9 6 6 6 5 5 7 1 2 2 2 2 3 2 4 4 6 4 8 12 15 24 28 14 19 18 14 18 19 20 21 19 19 19 19
21 21 20 20 19 19 18 18 17 17 17 15 3 0 3 5 8 6 3 3 4 4 4 4 3 7 5 4 2 1 3 4 4 7 4 5 4 10 18 26 20 17 20 21 21 24 21 19 17 18 18 17 16 17
23 22 21 21 19 19 18 18 18 16 10 1 3 5 4 6 3 1 4 3 3 4 4 5 9 10 3 5 5 5 4 4 4 6 7 4 4 9 24 9 8 13 16 17 16 18 20 20 20 19 19 19 18 15
25 23 22 22 21 20 19 19 18 7 3 5 2 2 1 1 2 4 4 4 4 5 4 4 5 4 4 3 5 4 4 2 6 5 4 3 7 7 8 8 9 9 8 11 9 14 16 15 11 11 10 13 14 13
25 25 24 24 23 22 21 20 19 17 11 4 4 4 4 5 7 7 6 5 3 3 4 4 4 3 2 3 5 4 7 7 3 4 4 4 3 9 11 13 16 15 12 13 16 17 18 14 12 9 11 6 8 9
25 25 24 24 24 23 22 21 20 15 5 5 5 7 8 5 6 6 6 5 6 2 1 3 3 2 2 3 3 6 5 3 3 2 7 1 4 4 7 8 13 19 19 14 13 13 19 19 11 10 8 4 5 9
23 23 22 22 23 23 22 21 21 7 4 5 5 7 8 5 2 5 5 1 5 2 1 3 2 0 3 5 4 3 4 5 3 4 1 4 7 5 7 6 6 11 14 16 15 11 13 13 9 8 7 6 6 7
22 21 15 19 20 21 22 19 10 5 4 5 7 4 2 4 5 3 4 6 3 2 2 1 3 1 6 5 5 8 4 5 4 5 5 3 9 10 10 8 8 7 10 13 16 13 11 10 8 7 8 3 3 3
23 9 14 19 20 21 22 9 3 7 6 6 4 2 4 4 9 8 5 5 4 4 3 2 3 7 3 4 6 4 7 7 4 4 4 7 13 13 10 10 11 10 11 12 13 14 13 9 6 6 9 4 3 3
11 5 17 20 17 8 4 5 4 5 8 3 4 5 7 6 4 4 5 3 4 4 3 7 2 3 7 12 12 8 8 9 9 9 10 12 13 14 10 11 10 11 12 13 13 12 9 7 8 8 7 4 3 2
13 9 18 22 14 4 4 6 5 4 6 3 2 2 4 5 6 6 5 5 5 4 3 2 4 7 11 9 11 11 9 9 12 14 12 13 12 13 13 9 9 12 13 13 13 10 8 8 9 6 5 2 3 2
25 24 23 21 14 3 5 5 4 4 5 6 2 3 7 8 7 8 8 6 5 3 4 6 11 13 12 14 14 15 14 13 12 13 14 13 12 12 8 8 9 10 9 11 10 13 6 6 5 7 5 5 4 4
19 14 18 16 6 5 4 4 4 4 3 3 4 6 4 3 6 6 6 3 2 6 7 9 12 15 16 15 13 12 14 13 13 13 15 16 14 12 13 12 11 9 9 10 12 13 12 8 9 6 4 5 5 3
5 15 3 7 5 5 5 5 4 3 3 3 1 2 2 3 4 5 3 4 5 10 7 11 13 14 15 18 16 14 15 14 15 14 21 20 16 14 14 13 10 11 11 12 11 11 10 7 7 6 6 5 6 4
8 5 4 5 7 7 5 5 4 5 5 3 2 1 4 4 6 3 4 5 6 9 13 13 17 19 16 16 13 14 16 17 14 14 16 15 15 15 14 14 13 12 13 13 11 10 10 12 10 8 5 6 6 5
10 7 7 6 9 6 4 5 3 3 2 2 4 5 5 6 1 2 6 5 11 10 10 15 10 10 10 12 13 14 14 11 12 14 13 13 13 15 14 14 13 13 12 11 9 8 8 8 10 7 7 8 8 9
7 10 6 7 5 5 5 4 5 3 6 6 4 5 5 3 3 3 6 6 8 10 10 10 9 10 12 14 13 13 14 8 11 16 12 10 12 12 12 12 13 13 10 10 10 9 9 8 8 9 9 9 11 12
9 9 8 8 4 7 7 7 8 8 4 3 8 5 3 4 3 8 6 7 7 7 9 10 10 10 11 12 13 13 12 9 10 13 13 10 13 13 16 14 11 11 8 10 11 12 12 10 9 11 11 14 19 13
7 5 3 3 4 4 2 0 1 4 7 8 5 3 4 5 9 8 6 5 5 6 7 8 9 10 12 13 11 11 10 9 10 12 13 12 12 13 11 12 13 10 7 9 10 11 11 11 11 11 11 9 12 13
5 6 10 7 3 2 6 3 7 9 7 5 4 5 9 11 10 7 6 5 6 6 7 8 8 10 12 13 12 11 11 10 12 11 9 10 12 12 14 12 12 18 9 7 9 8 9 10 9 10 10 10 9 10
4 3 5 6 2 2 6 8 8 6 5 7 7 6 9 8 8 8 9 9 5 3 8 12 11 8 9 7 8 9 9 8 9 15 17 11 8 6 5 7 7 7 6 7 14 12 11 9 8 8 10 9 9 10
5 3 5 4 7 9 8 9 6 4 4 5 2 6 11 12 12 10 10 10 10 12 13 12 10 8 10 10 11 8 3 6 8 8 8 9 6 6 7 5 4 3 3 4 4 3 8 5 8 7 9 9 9 9
5 4 4 3 6 6 5 2 2 1 1 4 3 8 17 16 13 10 12 12 9 6 6 8 8 6 6 6 4 6 6 2 1 5 7 6 5 5 5 5 4 1 2 3 4 5 7 8 8 10 11 12 14 13
2 7 7 4 6 4 1 3 2 3 4 3 12 11 10 8 15 6 3 3 3 3 5 5 5 4 2 4 5 5 12 6 5 6 8 5 4 3 3 2 0 0 2 4 5 7 9 9 8 9 10 13 13 14
2 2 2 2 3 4 3 3 2 5 3 4 8 5 5 3 6 2 0 1 0 4 5 5 6 6 7 7 7 7 9 5 10 15 14 8 7 4 2 1 1 2 5 5 6 9 10 12 10 11 12 14 13 14
Wind_Direction
308 308 312 315 317 314 318 325 324 320 319 323 328 314 303 298 290 254 241 187 200 237 241 226 219 238 253 239 259 160 39 185 123 191 198 228 215 225 183 166 180 172 164 196 178 210 270 157 97 182 221 232 243 231
294 298 303 309 313 312 315 315 316 319 315 312 314 314 314 315 307 299 254 198 218 238 265 203 246 269 266 262 276 218 219 158 206 171 217 235 250 217 194 246 128 224 203 185 195 211 264 202 223 225 234 242 255 245
292 293 296 298 301 303 305 310 313 312 313 310 305 306 311 318 315 317 304 34 318 283 274 228 225 240 247 238 233 256 227 227 206 203 142 238 237 150 205 227 218 232 194 242 269 202 245 256 252 256 262 246 261 255
287 288 290 293 294 294 297 301 304 308 309 313 309 307 303 306 304 307 261 232 272 273 266 286 193 225 243 226 221 224 240 259 55 141 210 212 218 198 226 246 218 191 141 230 264 271 273 259 253 260 265 262 256 256
284 286 286 285 287 289 290 291 294 299 303 307 308 305 301 297 302 301 228 217 208 211 276 283 279 236 208 195 208 214 218 229 196 181 206 225 238 243 234 317 249 197 243 235 256 267 266 272 268 273 269 263 259 256
276 279 281 283 284 286 288 288 288 291 296 301 305 305 304 301 310 342 310 252 216 215 277 283 322 354 313 217 231 219 217 231 192 176 198 223 212 182 231 241 264 250 247 241 255 260 259 270 276 277 276 279 269 271
271 270 273 277 280 283 285 288 286 282 288 294 298 300 300 296 271 219 213 210 119 108 234 300 288 310 290 64 150 230 210 224 208 197 215 206 201 205 220 252 258 261 243 247 247 262 270 270 273 267 262 271 270 262
270 271 272 273 276 278 282 286 287 288 284 284 290 295 297 293 289 257 238 254 258 207 190 249 268 306 252 220 261 186 207 181 199 226 230 212 188 201 251 237 256 258 263 268 265 265 269 278 282 280 278 280 280 278
267 269 270 272 273 275 278 282 284 285 284 285 295 303 296 231 224 233 231 237 184 189 210 216 189 273 168 203 230 245 231 232 189 217 221 170 175 220 223 237 252 252 264 284 298 286 272 267 268 273 278 277 275 274
263 263 263 265 268 271 273 276 278 282 284 289 306 357 280 229 297 326 339 219 220 226 235 226 189 249 164 180 229 200 211 232 217 220 165 220 243 264 257 249 264 297 292 286 285 286 286 281 275 271 273 274 268 268
260 260 261 262 263 264 266 268 270 275 293 179 207 224 248 308 16 354 270 213 227 234 196 233 219 236 184 205 230 198 215 226 230 226 189 217 254 244 253 323 280 281 287 289 288 284 279 278 282 287 286 281 279 273
257 257 256 258 259 260 261 263 264 261 191 193 265 268 284 279 205 216 212 284 232 242 210 221 227 220 242 197 201 206 234 198 251 140 203 246 248 344 329 304 298 291 306 312 345 336 322 308 302 299 289 290 295 290
258 258 258 257 258 257 258 259 261 255 251 219 214 192 181 223 213 206 212 262 254 225 224 205 260 227 200 241 244 229 213 230 104 199 213 227 306 11 353 348 334 337 343 358 359 344 326 303 308 301 283 286 316 312
257 257 257 257 256 256 256 257 258 259 223 213 201 218 190 224 228 186 196 211 242 197 220 217 270 206 191 263 271 256 233 206 262 220 217 221 18 320 335 347 349 334 329 328 320 352 330 308 304 296 287 349 22 337
257 258 258 259 257 255 254 253 252 240 217 216 213 226 213 219 241 196 208 241 232 219 291 333 316 129 263 255 211 267 278 269 239 248 263 245 259 275 319 315 340 315 321 322 316 313 317 306 296 298 312 353 21 359
254 258 256 254 256 255 251 252 247 222 224 215 209 229 246 91 268 286 199 243 190 182 77 70 245 245 249 223 184 227 214 222 229 204 222 236 271 308 302 261 265 282 291 295 297 303 311 313 298 291 289 310 354 351
253 244 241 248 252 253 243 235 182 206 228 220 206 155 211 246 214 216 184 217 164 111 194 188 203 236 270 276 282 230 214 249 261 234 230 261 282 278 269 263 262 260 273 287 290 300 309 298 279 276 270 259 249 201
238 226 235 239 245 259 239 202 207 226 218 186 176 202 211 219 204 208 215 188 136 180 129 217 183 203 255 264 252 254 277 289 275 266 265 263 265 268 263 252 271 286 281 286 287 284 285 290 284 268 263 244 153 247
233 223 233 239 240 163 252 204 181 239 220 198 219 206 205 226 238 259 228 219 199 188 124 56 245 229 238 245 254 260 259 259 273 283 284 277 268 268 265 261 267 274 277 279 281 272 273 253 255 259 261 228 253 181
243 239 237 234 229 204 241 224 180 198 195 212 126 189 211 224 229 232 231 213 189 134 217 214 238 246 252 255 255 259 262 268 275 280 280 279 278 279 258 245 255 261 261 270 270 263 261 272 264 255 239 222 228 218
242 237 242 231 229 215 213 216 207 190 201 190 217 184 227 11 228 224 229 151 121 212 235 230 244 249 250 251 255 258 266 268 267 269 274 279 281 278 277 271 262 261 252 260 266 271 273 248 263 256 221 226 223 181
226 221 156 195 223 207 224 194 222 158 156 226 47 135 185 217 230 229 161 170 218 234 224 240 243 250 255 255 259 258 261 268 267 271 278 280 282 278 270 268 265 259 257 257 259 264 270 260 250 233 216 214 177 161
209 176 158 173 215 213 235 162 174 179 191 214 126 179 247 234 217 100 218 217 229 238 240 242 245 248 253 262 268 267 259 260 267 268 269 267 268 269 268 268 259 252 253 254 249 251 250 252 257 236 211 184 164 153
167 177 178 209 193 215 168 187 159 143 114 139 176 230 264 220 123 105 228 230 243 252 249 250 249 259 263 256 251 254 259 256 259 261 260 262 261 268 262 260 258 253 246 253 243 232 234 238 236 215 198 182 173 167
208 179 199 199 178 162 153 163 165 157 206 209 186 269 256 114 178 223 224 247 247 253 258 260 255 244 248 258 263 262 258 246 258 266 262 252 270 272 273 263 254 251 244 239 244 237 232 227 223 206 193 187 182 174
215 198 201 180 160 143 175 167 193 205 178 186 221 250 48 139 150 239 225 236 239 235 244 244 248 255 255 248 257 261 254 248 249 256 266 268 267 267 266 264 261 257 229 226 229 231 228 218 209 200 196 200 191 168
211 189 173 168 147 116 132 128 110 143 182 204 220 181 150 214 231 238 243 234 213 231 230 236 233 240 257 266 257 252 267 273 260 267 278 276 268 261 266 262 255 259 245 205 214 217 215 209 201 199 203 192 186 177
193 180 165 178 181 164 173 170 177 197 212 205 117 187 195 206 236 245 221 241 225 238 241 248 244 252 262 266 272 278 275 275 277 271 268 266 256 253 249 249 250 253 237 204 210 211 211 213 200 195 192 183 176 172
192 192 113 161 122 190 208 191 210 222 206 161 187 234 241 238 263 272 272 266 260 228 271 276 274 263 264 268 267 262 262 266 275 276 278 282 294 283 227 237 247 241 227 211 206 196 199 194 184 183 180 175 161 150
235 146 106 133 172 214 226 187 223 229 202 213 233 282 272 269 265 265 273 275 271 266 272 277 283 289 280 278 280 272 249 256 251 253 272 280 277 318 315 290 260 238 208 194 185 172 192 176 147 133 126 129 135 136
140 96 81 162 226 236 219 252 308 300 283 243 223 245 267 276 280 262 256 269 281 296 291 283 281 278 288 296 284 288 293 258 283 291 280 279 279 290 297 302 299 262 155 135 142 146 146 139 142 141 142 142 151 144
137 176 157 198 259 268 4 170 231 222 265 263 262 259 277 279 284 274 20 347 13 348 313 319 300 292 356 308 289 281 284 292 301 303 301 289 291 296 291 291 289 132 123 130 120 121 126 128 132 136 137 137 135 137
66 83 58 68 337 315 295 87 295 287 267 257 267 279 273 208 249 268 94 48 37 281 289 294 288 281 275 274 270 282 295 292 293 301 309 306 289 277 256 249 94 87 99 107 116 122 121 123 124 128 127 128 128 129